International Skating Union - Official Site

Essent ISU World Cup Berlin
December 6-8, 2013

Draw | Lap Times | Index | World Cup

Referee: Ekaterina  PILSHCHIKOVA  (RUS)
Starter: Roman  DANILOV  (RUS)
StartTime: EndTime: Air Temp: Ice Temp: Humidity:
16:50 17:16 17.4 ℃ -4 ℃ 34.7
Result Team Pursuit Ladies
Rankings as of Dec 8 2013 5:18PM
Rank: No.: Team: Nation: Time: Behind: Points:
Total 11
1 501 Netherlands (281) Ireen Wüst (276) Jorien ter Mors (273) Marrit Leenstra NED NED 2:58.190.5 - 18.48 - (18.4)
1.0 - 32.46 - (13.9)
1.5 - 46.45 - (13.9)
2.0 - 1:00.72 - (14.2)
2.5 - 1:14.95 - (14.2)
3.0 - 1:29.31 - (14.3)
3.5 - 1:43.68 - (14.3)
4.0 - 1:58.27 - (14.5)
4.5 - 2:13.19 - (14.9)
5.0 - 2:28.36 - (15.1)
5.5 - 2:43.30 - (14.9)
6.0 - 2:58.19 - (14.8)
100
2 504 Poland (286) Katarzyna Bachleda-Curus (289) Luiza Zlotkowska (287) Natalia Czerwonka POL POL 3:01.180.5 - 19.36 - (19.3)
1.0 - 33.91 - (14.5)
1.5 - 48.25 - (14.3)
2.0 - 1:02.60 - (14.3)
2.5 - 1:16.72 - (14.1)
3.0 - 1:30.86 - (14.1)
3.5 - 1:45.49 - (14.6)
4.0 - 2:00.43 - (14.9)
4.5 - 2:15.74 - (15.3)
5.0 - 2:30.81 - (15.0)
5.5 - 2:45.95 - (15.1)
6.0 - 3:01.16 - (15.2)
2.99 80
3 507 Korea (263) Seon-Yeong Noh (259) Bo-Reum Kim (266) Shin Young Yang KOR KOR 3:02.040.5 - 19.53 - (19.5)
1.0 - 34.11 - (14.5)
1.5 - 48.61 - (14.5)
2.0 - 1:02.94 - (14.3)
2.5 - 1:17.50 - (14.5)
3.0 - 1:32.40 - (14.9)
3.5 - 1:47.23 - (14.8)
4.0 - 2:01.99 - (14.7)
4.5 - 2:16.81 - (14.8)
5.0 - 2:31.64 - (14.8)
5.5 - 2:46.95 - (15.3)
6.0 - 3:02.04 - (15.0)
3.85 70
4 506 Russia (296) Yekaterina Lobysheva (297) Yekaterina Shikhova (294) Olga Graf RUS RUS 3:02.180.5 - 19.21 - (19.2)
1.0 - 33.57 - (14.3)
1.5 - 48.05 - (14.4)
2.0 - 1:02.75 - (14.7)
2.5 - 1:17.51 - (14.7)
3.0 - 1:32.16 - (14.6)
3.5 - 1:46.96 - (14.7)
4.0 - 2:01.70 - (14.7)
4.5 - 2:16.65 - (14.9)
5.0 - 2:31.54 - (14.8)
5.5 - 2:46.81 - (15.2)
6.0 - 3:02.18 - (15.3)
3.99 60
5 502 Canada (211) Brittany Schussler (207) Kali Christ (206) Ivanie Blondin CAN CAN 3:02.810.5 - 19.79 - (19.7)
1.0 - 33.92 - (14.1)
1.5 - 48.19 - (14.2)
2.0 - 1:02.31 - (14.1)
2.5 - 1:16.83 - (14.5)
3.0 - 1:31.29 - (14.4)
3.5 - 1:45.90 - (14.6)
4.0 - 2:01.01 - (15.1)
4.5 - 2:16.37 - (15.3)
5.0 - 2:31.84 - (15.4)
5.5 - 2:47.21 - (15.3)
6.0 - 3:02.81 - (15.5)
4.62 50
6 505 USA (309) Heather Richardson (303) Brittany Bowe (310) Jilleanne Rookard USA USA 3:03.020.5 - 18.83 - (18.8)
1.0 - 32.88 - (14.0)
1.5 - 46.72 - (13.8)
2.0 - 1:01.01 - (14.2)
2.5 - 1:15.59 - (14.5)
3.0 - 1:30.48 - (14.8)
3.5 - 1:45.71 - (15.2)
4.0 - 2:00.85 - (15.1)
4.5 - 2:16.29 - (15.4)
5.0 - 2:31.74 - (15.4)
5.5 - 2:47.45 - (15.7)
6.0 - 3:03.01 - (15.5)
4.83 45
7 503 Japan (251) Nana Takagi (249) Maki Tabata (244) Ayaka Kikuchi JPN JPN 3:03.530.5 - 18.85 - (18.8)
1.0 - 33.06 - (14.2)
1.5 - 47.27 - (14.2)
2.0 - 1:01.60 - (14.3)
2.5 - 1:16.17 - (14.5)
3.0 - 1:30.84 - (14.6)
3.5 - 1:46.01 - (15.1)
4.0 - 2:01.20 - (15.1)
4.5 - 2:16.65 - (15.4)
5.0 - 2:32.11 - (15.4)
5.5 - 2:47.90 - (15.7)
6.0 - 3:03.53 - (15.6)
5.34 40
8 508 Norway (285) Ida Njåtun (282) Hege Bøkko (284) Mari Hemmer NOR NOR 3:04.410.5 - 19.44 - (19.4)
1.0 - 33.90 - (14.4)
1.5 - 47.98 - (14.0)
2.0 - 1:02.49 - (14.5)
2.5 - 1:17.18 - (14.6)
3.0 - 1:32.36 - (15.1)
3.5 - 1:47.51 - (15.1)
4.0 - 2:02.84 - (15.3)
4.5 - 2:18.39 - (15.5)
5.0 - 2:33.64 - (15.2)
5.5 - 2:48.93 - (15.2)
6.0 - 3:04.41 - (15.4)
6.22 35
9 511 Germany (232) Claudia Pechstein (224) Monique Angermüller (225) Jennifer Bay GER GER 3:05.860.5 - 18.84 - (18.8)
1.0 - 32.88 - (14.0)
1.5 - 47.02 - (14.1)
2.0 - 1:01.56 - (14.5)
2.5 - 1:16.58 - (15.0)
3.0 - 1:31.50 - (14.9)
3.5 - 1:46.54 - (15.0)
4.0 - 2:01.65 - (15.1)
4.5 - 2:17.04 - (15.3)
5.0 - 2:32.96 - (15.9)
5.5 - 2:49.25 - (16.2)
6.0 - 3:05.86 - (16.6)
7.67 30
10 509 China (218) Xin Zhao (213) Qishi Li (212) Jia Ji CHN CHN 3:07.500.5 - 18.99 - (18.9)
1.0 - 33.31 - (14.3)
1.5 - 47.62 - (14.3)
2.0 - 1:02.29 - (14.6)
2.5 - 1:17.17 - (14.8)
3.0 - 1:32.48 - (15.3)
3.5 - 1:47.83 - (15.3)
4.0 - 2:03.27 - (15.4)
4.5 - 2:19.10 - (15.8)
5.0 - 2:35.28 - (16.1)
5.5 - 2:51.46 - (16.1)
6.0 - 3:07.50 - (16.0)
9.31 25
11 510 Italy (239) Francesca Lollobrigida (237) Francesca Bettrone (240) Paola Simionato ITA ITA 3:08.730.5 - 19.39 - (19.3)
1.0 - 33.81 - (14.4)
1.5 - 48.28 - (14.4)
2.0 - 1:02.83 - (14.5)
2.5 - 1:17.61 - (14.7)
3.0 - 1:32.76 - (15.1)
3.5 - 1:48.50 - (15.7)
4.0 - 2:04.47 - (15.9)
4.5 - 2:20.34 - (15.8)
5.0 - 2:36.36 - (16.0)
5.5 - 2:52.52 - (16.1)
6.0 - 3:08.68 - (16.1)
10.54 21